User: anonymous   Login
Location: Unspecified
(0.0000°N, 0.0000°E)
Time: 10:18:46
(UTC+00:00)
Language:

COSMOS 2484 - Orbit

View from above orbital plane
View from above orbital plane
View from above satellite
View from above satellite

Ground track
Ground track

The orbit data is extracted from the following two-line orbital elements,

1 39059U 13001C   17080.90004234 +.00000010 +00000-0 +00000-0 0  9990
2 39059 082.5051 159.8588 0025249 192.1735 167.8739 12.42884296189581
Epoch (UTC): 21 March 2017 21:36:03
Eccentricity: 0.0025249
inclination: 82.5051°
perigee height: 1474 km
apogee height: 1514 km
right ascension of ascending node: 159.8588°
argument of perigee: 192.1735°
revolutions per day: 12.42884296
mean anomaly at epoch: 167.8739°
orbit number at epoch: 18958

The dashed part of the orbit path shows where the satellite is in the earth's shadow,  

DLR